RYR84KK LEAM-EBCI

Flight info

Callsign RYR84KK
Flight time N/A
Altitude 34000
Route AGIDO M192 ARPEX DCT BAZAS M192 BLN N865 VTB N867 RBO DCT OSTIX N867 DGO L176 LUSEM DCT LULUT DCT ADABI DCT BOKNO UN858 VANAD UN874 BAMES UT191 PODEM UN873 BAZOS DCT BELDI DCT VEKIN Z173 ARVOL
Aircraft B738/M-SDE2E3FGHIRWXY/LB1

Departure

Time 2026-05-04 21:32
Airport Almería Airport (LEAM)

Arrival

Time N/A
Airport Brussels South Charleroi Airport (EBCI)
Time Latitude Longitude Altitude Speed Heading
2026-05-04 21:01 36.84610 -2.37467 51 ft 0 kts 345°
2026-05-04 21:26 36.84615 -2.37465 24 ft 1 kts 12°
2026-05-04 21:26 36.84616 -2.37453 51 ft 2 kts 89°
2026-05-04 21:26 36.84607 -2.37438 48 ft 5 kts 137°
2026-05-04 21:26 36.84559 -2.37373 52 ft 9 kts 102°
2026-05-04 21:27 36.84572 -2.37295 51 ft 9 kts 69°
2026-05-04 21:27 36.84586 -2.37246 49 ft 9 kts 76°
2026-05-04 21:27 36.84612 -2.37138 50 ft 13 kts 72°
2026-05-04 21:27 36.84645 -2.37010 53 ft 16 kts 72°
2026-05-04 21:28 36.84635 -2.36924 55 ft 16 kts 128°
2026-05-04 21:28 36.84620 -2.36803 59 ft 15 kts 73°
2026-05-04 21:28 36.84651 -2.36678 59 ft 17 kts 72°
2026-05-04 21:28 36.84691 -2.36517 63 ft 20 kts 72°
2026-05-04 21:29 36.84731 -2.36358 63 ft 19 kts 72°
2026-05-04 21:29 36.84770 -2.36202 60 ft 18 kts 72°
2026-05-04 21:29 36.84808 -2.36051 64 ft 18 kts 73°
2026-05-04 21:29 36.84843 -2.35895 64 ft 20 kts 74°
2026-05-04 21:30 36.84884 -2.35730 68 ft 20 kts 72°
2026-05-04 21:30 36.84924 -2.35572 75 ft 19 kts 72°
2026-05-04 21:30 36.84952 -2.35416 77 ft 17 kts 98°
2026-05-04 21:30 36.84912 -2.35346 73 ft 0 kts 150°
2026-05-04 21:31 36.84905 -2.35341 74 ft 3 kts 150°
2026-05-04 21:31 36.84854 -2.35328 72 ft 13 kts 184°
2026-05-04 21:32 36.84781 -2.35445 68 ft 24 kts 252°
2026-05-04 21:32 36.84665 -2.35918 66 ft 99 kts 253°
2026-05-04 21:32 36.84383 -2.37029 216 ft 154 kts 252°
2026-05-04 21:32 36.84057 -2.38276 1206 ft 151 kts 254°
2026-05-04 21:33 36.83740 -2.39606 1937 ft 171 kts 254°
2026-05-04 21:33 36.83378 -2.41092 2638 ft 185 kts 254°
2026-05-04 21:33 36.82994 -2.42678 3373 ft 195 kts 253°
2026-05-04 21:33 36.82579 -2.44325 3903 ft 207 kts 253°
2026-05-04 21:34 36.82135 -2.46084 4493 ft 215 kts 252°
2026-05-04 21:34 36.81628 -2.47875 5154 ft 220 kts 241°
2026-05-04 21:34 36.80555 -2.49244 5867 ft 223 kts 210°
2026-05-04 21:34 36.79081 -2.49796 6652 ft 225 kts 182°
2026-05-04 21:35 36.77539 -2.49465 7268 ft 232 kts 167°
2026-05-04 21:35 36.75979 -2.48859 7880 ft 239 kts 162°
2026-05-04 21:35 36.74578 -2.47577 8160 ft 266 kts 126°
2026-05-04 21:35 36.73992 -2.45351 8684 ft 278 kts 92°
2026-05-04 21:36 36.74365 -2.42973 9310 ft 284 kts 64°
2026-05-04 21:36 36.75529 -2.41036 9905 ft 285 kts 36°
2026-05-04 21:36 36.77247 -2.39854 10494 ft 283 kts 17°
2026-05-04 21:36 36.79121 -2.39080 11093 ft 285 kts 12°
2026-05-04 21:37 36.81049 -2.38380 11620 ft 296 kts 12°
2026-05-04 21:37 36.83117 -2.37629 11803 ft 323 kts 12°
2026-05-04 21:37 36.85353 -2.36787 12011 ft 348 kts 13°
2026-05-04 21:37 36.87721 -2.35861 12482 ft 361 kts 14°
2026-05-04 21:38 36.90143 -2.34889 13186 ft 368 kts 14°
2026-05-04 21:38 36.92554 -2.33910 13965 ft 371 kts 13°
2026-05-04 21:38 36.95058 -2.33101 14640 ft 369 kts 359°
2026-05-04 21:38 36.97538 -2.33521 15374 ft 356 kts 334°
2026-05-04 21:39 36.99700 -2.34962 16102 ft 350 kts 318°
2026-05-04 21:39 37.01451 -2.37041 16752 ft 348 kts 307°
2026-05-04 21:39 37.03075 -2.39323 17418 ft 353 kts 306°
2026-05-04 21:39 37.04693 -2.41650 18118 ft 356 kts 306°
2026-05-04 21:40 37.06332 -2.44001 18746 ft 359 kts 306°
2026-05-04 21:40 37.07988 -2.46359 19364 ft 362 kts 306°
2026-05-04 21:40 37.09645 -2.48700 20000 ft 364 kts 307°
2026-05-04 21:40 37.11342 -2.51088 20623 ft 367 kts 307°
2026-05-04 21:41 37.13048 -2.53485 21228 ft 370 kts 307°
2026-05-04 21:41 37.14772 -2.55907 21792 ft 374 kts 307°
2026-05-04 21:41 37.16512 -2.58352 22405 ft 376 kts 307°
2026-05-04 21:41 37.18239 -2.60782 22986 ft 379 kts 306°
2026-05-04 21:42 37.20057 -2.63211 23573 ft 385 kts 312°
2026-05-04 21:42 37.22119 -2.65406 24070 ft 389 kts 315°
2026-05-04 21:42 37.24231 -2.67553 24575 ft 391 kts 315°
2026-05-04 21:42 37.26350 -2.69696 25070 ft 392 kts 315°
2026-05-04 21:43 37.28477 -2.71858 25528 ft 394 kts 315°
2026-05-04 21:43 37.30571 -2.74003 25947 ft 395 kts 315°
2026-05-04 21:43 37.32717 -2.76211 26410 ft 397 kts 315°
2026-05-04 21:43 37.34858 -2.78422 26876 ft 398 kts 314°
2026-05-04 21:44 37.37005 -2.80642 27275 ft 400 kts 314°
2026-05-04 21:44 37.39125 -2.82836 27688 ft 402 kts 314°
2026-05-04 21:44 37.41304 -2.85093 28045 ft 405 kts 314°
2026-05-04 21:44 37.43489 -2.87355 28443 ft 407 kts 314°
2026-05-04 21:45 37.45679 -2.89620 28905 ft 407 kts 314°
2026-05-04 21:45 37.47865 -2.91880 29504 ft 404 kts 314°
2026-05-04 21:45 37.50030 -2.94119 30160 ft 400 kts 314°
2026-05-04 21:45 37.52144 -2.96312 30593 ft 398 kts 314°
2026-05-04 21:46 37.54293 -2.98543 30965 ft 399 kts 314°
2026-05-04 21:46 37.56445 -3.00781 31329 ft 399 kts 314°
2026-05-04 21:46 37.58584 -3.03004 31746 ft 397 kts 314°
2026-05-04 21:46 37.60683 -3.05191 32203 ft 395 kts 314°
2026-05-04 21:47 37.62800 -3.07400 32615 ft 394 kts 313°
2026-05-04 21:47 37.64905 -3.09601 32991 ft 393 kts 313°
2026-05-04 21:47 37.67011 -3.11805 33348 ft 393 kts 313°
2026-05-04 21:47 37.69114 -3.14006 33727 ft 392 kts 313°
2026-05-04 21:48 37.71213 -3.16205 34041 ft 393 kts 313°
2026-05-04 21:48 37.75441 -3.20633 34035 ft 396 kts 313°
2026-05-04 21:49 37.79667 -3.25035 34029 ft 390 kts 313°
2026-05-04 21:49 37.83858 -3.29412 34031 ft 390 kts 313°
2026-05-04 21:50 37.88015 -3.33765 34027 ft 390 kts 313°
2026-05-04 21:50 37.90820 -3.36706 34026 ft 390 kts 313°